ROMMA est une association bénévole à but non lucratif. Votre soutien est indispensable : ADHERER à ROMMA ou FAIRE un DON

Saint-Laurent-du-Pont - (38, Isère)

Chartreuse (410 m)   Longitude: 05° 43' 24" E   Latitude: 45° 23' 14" N Station partenaire n°156
 

Détail journalier du     <<     >>

Température Precipitation Humidité Pression Vent Dir Rafale Dir. rafale
Heure (°C) (mm) (%) (hPa) (km/h) (km/h)
01:00 11.70.29210172NNE11ENE
02:00 11.509410172ENE11ENE
03:00 11.2096101705NE
04:00 11.109610171SSE5E
05:00 11.109710172ENE5ENE
06:00 11.009710171ENE6E
07:00 10.70.29710171SSE5N
08:00 10.709710171SE3S
09:00 10.9097101803OSO
10:00 11.8096101805E
11:00 12.709610192OSO5O
12:00 13.408910182NE8NE
13:00 14.708010183NE8NE
14:00 15.707510183NE11NNE
15:00 17.206810182N11NNO
16:00 16.60.27410173NNE13N
17:00 17.306910174NNE11OSO
18:00 15.907910172SE8O
19:00 14.408510182ESE6ENE
20:00 13.308910192ESE5ESE
21:00 13.508710192ENE6E
22:00 13.608810193ENE6E
23:00 13.108810193ENE6ENE
minuit 12.408910192ENE8E

Graphique du 05-10-2019

 

Serveur OMMA